Mobridge, SD

12:42 PM CDT on July 20, 2017 (GMT -0500)
Mobridge Municipal

Weather History for KMBG - February, 2013

Change the Weather History Date:

Thursday, February 28, 2013

  Actual Average Record
Temperature  
Mean Temperature 29 °F 25 °F  
Max Temperature 35 °F 35 °F 59 °F (1934)
Min Temperature 22 °F 15 °F -28 °F (1919)
Degree Days  
Heating Degree Days 36 40  
Month to date heating degree days 1131 1242  
Since 1 July heating degree days 5816 5975  
Cooling Degree Days 0 0  
Month to date cooling degree days 0 0  
Year to date cooling degree days 0 0  
Moisture  
Dew Point 20 °F    
Average Humidity 77    
Maximum Humidity 92    
Minimum Humidity 61    
Precipitation  
Precipitation T in 0.02 in 0.35 in (1951)
Month to date precipitation 0.36 0.44  
Year to date precipitation 0.96 0.73  
Snow  
Snow T in - - ()
Month to date snowfall 4.5  
Since 1 July snowfall 24.3  
Snow Depth 0.00 in    
Sea Level Pressure  
Sea Level Pressure 30.26 in    
Wind  
Wind Speed 7 mph (NNE)    
Max Wind Speed 15 mph    
Max Gust Speed 20 mph    
Visibility 9 miles    
Events Snow    
T = Trace of Precipitation, MM = Missing Value Source: NWS Daily Summary

Daily Weather History Graph

Daily Weather History Graph

Search for Another Location

Airport or City:

Trip Planner

Search our weather history database for the weather conditions in past years. The results will help you decide how hot, cold, wet, or windy it might be!

Date:

Astronomy

Feb. 28, 2013 Rise Set
Actual Time 7:21 AM CST 6:27 PM CST
Civil Twilight 6:51 AM CST 6:57 PM CST
Nautical Twilight 6:17 AM CST 7:31 PM CST
Astronomical Twilight 5:42 AM CST 8:06 PM CST
Moon 10:10 PM CST (2/28) 8:20 AM CST (2/28)
Length of Visible Light 12h 05m
Length of Day
11h 06m
Waning Gibbous, 90% of the Moon is Illuminated
Feb 28
Waning Gibbous
Mar 4
Last Quarter
Mar 11
New
Mar 19
First Quarter
Mar 27
Full

Hourly Weather History & Observations

Time (CST) Temp. Windchill Dew Point Humidity Pressure Visibility Wind Dir Wind Speed Gust Speed Precip Events Conditions
12:52 AM 26.1 °F 15.0 °F 19.9 °F 78% 30.28 in 10.0 mi North 12.7 mph - N/A   Overcast
1:52 AM 25.0 °F 15.5 °F 19.0 °F 78% 30.28 in 10.0 mi NNE 9.2 mph - N/A   Overcast
2:40 AM 24.8 °F 15.3 °F 19.4 °F 80% 30.21 in 10.0 mi North 9.2 mph - N/A   Overcast
2:52 AM 24.1 °F 15.2 °F 19.0 °F 81% 30.28 in 10.0 mi North 8.1 mph - N/A   Overcast
3:03 AM 24.8 °F 14.6 °F 19.4 °F 80% 30.21 in 10.0 mi North 10.4 mph - N/A   Overcast
3:13 AM 24.8 °F 14.6 °F 17.6 °F 74% 30.21 in 10.0 mi NNE 10.4 mph - N/A   Overcast
3:52 AM 23.0 °F 13.9 °F 18.0 °F 81% 30.29 in 10.0 mi North 8.1 mph - N/A   Overcast
4:50 AM 21.2 °F 14.9 °F 17.6 °F 86% 30.22 in 10.0 mi NW 4.6 mph - N/A   Overcast
4:52 AM 21.9 °F 15.7 °F 18.0 °F 85% 30.29 in 10.0 mi NW 4.6 mph - N/A   Overcast
5:52 AM 21.9 °F 13.4 °F 18.0 °F 85% 30.30 in 10.0 mi NNW 6.9 mph - N/A   Overcast
6:52 AM 21.9 °F 14.5 °F 18.0 °F 85% 30.30 in 10.0 mi NNW 5.8 mph - N/A   Overcast
7:52 AM 23.0 °F 17.0 °F 19.0 °F 85% 30.31 in 10.0 mi NNW 4.6 mph - N/A   Overcast
8:52 AM 24.1 °F 15.2 °F 19.0 °F 81% 30.31 in 10.0 mi NNW 8.1 mph - N/A   Overcast
9:50 AM 24.8 °F 15.3 °F 19.4 °F 80% 30.24 in 1.8 mi North 9.2 mph - 0.00 in Snow Light Snow
9:52 AM 25.0 °F 16.3 °F 19.9 °F 81% 30.31 in 1.5 mi North 8.1 mph - 0.00 in Snow Light Snow
9:57 AM 24.8 °F 16.1 °F 19.4 °F 80% 30.24 in 0.8 mi North 8.1 mph - 0.00 in Snow Light Snow
10:07 AM 24.8 °F 17.9 °F 19.4 °F 80% 30.24 in 2.0 mi North 5.8 mph - 0.00 in Snow Light Snow
10:15 AM 24.8 °F 17.9 °F 19.4 °F 80% 30.24 in 5.0 mi North 5.8 mph - 0.00 in Snow Light Snow
10:22 AM 24.8 °F 16.9 °F 19.4 °F 80% 30.24 in 7.0 mi North 6.9 mph - 0.00 in   Overcast
10:52 AM 25.0 °F 16.3 °F 19.9 °F 81% 30.32 in 10.0 mi North 8.1 mph - 0.00 in   Overcast
11:52 AM 27.0 °F 19.5 °F 19.9 °F 75% 30.31 in 10.0 mi North 6.9 mph - N/A   Overcast
12:52 PM 28.9 °F 25.2 °F 21.0 °F 72% 30.30 in 10.0 mi North 3.5 mph - N/A   Overcast
1:21 PM 30.2 °F 24.3 °F 21.2 °F 69% 30.21 in 10.0 mi NE 5.8 mph - N/A   Scattered Clouds
1:52 PM 30.9 °F 25.2 °F 21.9 °F 69% 30.26 in 10.0 mi ENE 5.8 mph - N/A   Scattered Clouds
2:52 PM 32.0 °F 28.7 °F 21.0 °F 64% 30.26 in 10.0 mi NW 3.5 mph - N/A   Mostly Cloudy
3:35 PM 35.6 °F 31.7 °F 21.2 °F 56% 30.19 in 10.0 mi NE 4.6 mph - N/A   Partly Cloudy
3:52 PM 34.0 °F - 21.0 °F 59% 30.25 in 10.0 mi Calm Calm - N/A   Partly Cloudy
4:09 PM 33.8 °F 28.6 °F 21.2 °F 60% 30.19 in 10.0 mi WNW 5.8 mph - N/A   Mostly Cloudy
4:52 PM 33.1 °F 26.9 °F 21.0 °F 61% 30.25 in 10.0 mi ENE 6.9 mph - N/A   Overcast
5:52 PM 30.0 °F 21.7 °F 21.9 °F 72% 30.27 in 10.0 mi East 9.2 mph - N/A   Overcast
6:52 PM 27.0 °F 18.0 °F 21.0 °F 78% 30.28 in 10.0 mi East 9.2 mph - N/A   Scattered Clouds
7:52 PM 26.1 °F 16.2 °F 21.0 °F 81% 30.29 in 10.0 mi East 10.4 mph - N/A   Overcast
8:52 PM 23.0 °F 12.4 °F 19.0 °F 85% 30.30 in 10.0 mi East 10.4 mph 17.3 mph N/A   Mostly Cloudy
9:45 PM 21.2 °F 10.1 °F 19.4 °F 93% 30.23 in 10.0 mi East 10.4 mph - N/A   Overcast
9:52 PM 21.9 °F 9.8 °F 19.0 °F 89% 30.31 in 10.0 mi East 12.7 mph - N/A   Overcast
10:07 PM 21.2 °F 8.9 °F 19.4 °F 93% 30.23 in 10.0 mi East 12.7 mph 18.4 mph N/A   Overcast
10:41 PM 21.2 °F 10.1 °F 19.4 °F 93% 30.24 in 10.0 mi East 10.4 mph - N/A   Overcast
10:52 PM 21.9 °F 13.4 °F 19.0 °F 89% 30.32 in 10.0 mi East 6.9 mph - N/A   Overcast
11:22 PM 23.0 °F 13.9 °F 19.4 °F 86% 30.24 in 10.0 mi East 8.1 mph - N/A   Overcast
11:52 PM 23.0 °F 15.8 °F 19.9 °F 88% 30.32 in 10.0 mi East 5.8 mph - N/A   Overcast